Theta_e
332 331 327 326 328 329 330 330 329 330 331 331 331 331 332 331 331 331 331 331 331 332 331 331 331 330 331 333 331 329 328 327 326 326 325 325 326 326 327 329 330 330 331 331 330 329 328 328 327 326 324 320 317 315 315 315 317 318 319 318 317 317 317 316 315 316 317 316 317 318 318 319 319 319 319 318 318 318 317 317 319 320 319 319 319
331 331 328 327 328 330 331 331 330 330 330 330 331 331 331 332 332 331 331 331 331 331 331 332 332 331 332 332 332 329 328 327 326 324 324 325 327 328 328 329 331 332 331 331 330 330 328 328 328 328 326 324 322 321 320 321 323 324 324 323 321 318 317 316 315 314 316 315 315 317 317 318 318 318 318 318 318 317 316 316 318 319 319 319 318
332 332 330 328 328 330 331 331 331 330 330 330 330 330 331 331 331 331 331 330 330 330 331 332 332 332 332 332 331 329 327 326 324 323 323 325 328 329 329 330 330 331 331 330 330 330 328 328 328 328 327 325 324 325 324 323 324 324 324 325 325 322 320 320 318 315 315 316 314 315 316 317 316 316 316 317 318 317 316 315 317 318 318 319 317
333 333 332 330 329 330 330 331 332 331 331 331 331 331 330 331 331 330 330 329 329 330 331 332 331 331 332 331 329 327 325 323 322 322 323 326 329 330 330 330 330 330 330 330 330 330 329 328 328 328 328 326 324 325 324 324 324 325 325 325 325 324 323 323 322 317 313 316 316 315 316 316 313 312 313 315 316 318 317 316 316 317 318 319 318
334 333 333 331 331 331 331 331 332 331 331 331 331 331 330 331 330 330 328 328 328 330 331 331 331 331 331 330 329 328 324 320 321 322 324 327 329 330 330 330 330 330 330 330 330 330 330 330 330 330 329 327 325 325 326 326 327 327 327 327 327 327 326 324 323 318 312 314 314 314 316 315 312 310 310 311 314 317 317 317 317 317 317 318 318
334 334 333 333 332 332 331 331 331 331 331 331 331 331 330 330 330 329 328 327 328 330 330 330 330 331 331 330 330 330 325 323 324 323 325 328 328 329 329 329 329 328 329 330 330 330 330 331 330 330 330 329 328 327 328 329 329 329 329 329 329 329 328 327 326 321 316 314 312 312 313 313 312 311 309 309 312 314 315 317 317 316 315 316 317
335 334 333 333 332 331 331 331 332 332 331 332 332 331 330 330 329 329 328 327 328 329 330 330 330 331 331 330 330 330 328 327 327 324 325 327 327 327 327 327 327 327 327 329 330 330 330 330 330 330 330 330 331 330 330 330 330 330 330 330 330 330 329 329 328 326 323 319 316 316 315 313 310 310 312 310 310 312 313 315 316 316 315 315 315
334 333 332 332 331 331 331 332 332 332 332 332 332 331 331 330 329 328 327 328 328 328 329 329 330 330 330 331 331 330 329 328 326 324 324 325 325 325 325 326 326 326 326 327 328 329 329 329 329 329 330 330 330 330 330 330 330 330 330 330 330 330 330 329 329 329 327 325 323 323 322 321 316 315 317 316 314 313 312 312 314 314 315 315 316
334 334 333 332 331 332 332 332 332 332 332 331 332 331 330 330 328 328 328 328 328 328 328 329 329 330 330 331 331 330 330 329 328 327 325 325 325 324 324 325 326 326 326 326 327 327 327 328 329 329 330 329 329 329 330 330 330 330 330 330 330 330 330 330 330 329 329 328 327 327 326 326 324 323 323 321 320 318 314 312 313 314 313 314 315
334 334 333 332 332 333 333 333 332 332 331 331 332 331 330 329 328 328 328 328 328 328 328 329 329 330 330 330 330 330 330 330 329 329 328 328 328 326 325 325 326 326 326 326 326 326 327 327 328 328 328 329 328 328 328 328 329 329 330 328 328 330 331 330 330 330 330 330 329 328 328 327 327 326 325 324 323 321 318 315 314 314 312 312 313
334 334 334 333 332 333 333 333 333 332 331 331 331 331 330 329 328 329 329 329 329 329 329 329 330 331 330 330 330 330 330 329 329 329 329 329 330 328 328 328 327 326 326 326 326 326 327 327 327 327 327 327 327 327 327 328 327 328 328 329 329 329 330 330 330 329 330 330 329 329 328 327 327 327 326 326 325 324 322 319 316 315 313 313 313
333 334 334 334 333 333 333 333 333 332 331 331 331 331 330 329 328 329 329 329 329 329 329 330 329 329 330 329 329 329 329 329 328 328 329 329 329 329 328 329 329 328 328 328 328 328 328 328 328 328 328 328 327 327 326 326 325 325 325 327 328 328 328 329 330 329 329 329 329 329 329 327 327 327 327 326 326 325 325 323 321 318 317 316 316
334 334 334 334 334 334 334 333 332 332 332 331 331 331 330 329 329 329 330 330 330 329 330 330 328 327 328 328 328 328 328 328 329 328 328 328 328 328 328 329 329 329 330 329 329 329 329 329 329 328 328 328 327 326 325 324 321 321 322 323 325 327 327 327 329 329 328 328 329 329 328 328 327 328 327 327 327 327 326 326 325 323 321 319 318
335 334 334 334 334 334 333 332 332 332 332 331 331 331 330 329 329 331 331 330 330 330 330 330 328 327 326 326 327 328 327 327 329 329 328 328 328 327 327 327 328 328 329 329 328 329 329 329 329 328 327 327 326 325 324 321 319 320 322 322 324 326 327 327 328 328 327 328 328 328 328 328 328 328 327 327 327 327 327 326 326 325 324 322 321
334 334 334 334 334 334 332 331 331 332 332 331 331 331 329 329 329 331 331 331 331 330 330 330 329 328 326 327 328 328 327 325 326 328 328 327 327 326 326 326 327 328 328 328 328 328 328 328 328 327 326 325 324 322 321 320 320 322 324 324 324 325 327 327 327 327 327 328 328 327 327 327 328 328 327 326 327 327 326 327 327 326 326 324 324
333 333 333 334 334 333 331 331 332 333 332 332 332 331 330 329 329 330 330 330 330 330 330 330 329 328 328 328 325 326 330 325 321 324 327 327 326 325 325 326 326 327 327 328 328 328 327 328 327 325 322 321 320 320 320 320 321 323 325 325 325 325 326 326 327 327 327 328 328 327 327 327 327 327 326 326 327 326 326 327 327 327 327 326 325
333 333 333 333 334 332 331 331 332 333 333 332 333 332 331 329 329 330 330 330 330 330 330 329 329 328 329 329 327 329 331 325 321 322 324 326 326 325 326 325 325 326 326 327 327 327 327 326 324 320 317 317 318 319 319 319 320 322 324 324 324 325 326 327 326 326 327 327 327 327 326 326 326 326 326 325 326 326 326 326 327 327 327 327 326
332 332 332 332 332 332 332 332 332 332 332 332 333 332 331 331 330 330 330 330 330 330 330 329 329 328 328 328 329 330 327 323 325 324 321 324 326 326 326 325 325 325 325 326 326 326 325 323 319 315 312 313 316 316 316 317 319 321 322 323 323 325 326 326 326 326 326 325 325 325 324 324 324 324 324 324 324 325 326 326 326 326 326 326 326
331 331 331 331 331 331 331 332 331 332 332 331 332 332 332 332 331 330 330 330 330 330 330 330 329 329 329 328 327 328 325 322 325 324 323 324 323 324 326 324 325 325 325 326 325 324 323 319 313 309 309 311 312 312 313 314 316 318 319 321 322 323 324 325 325 323 321 321 321 320 319 319 319 319 319 320 321 322 323 324 325 325 325 325 326
330 330 330 330 330 330 330 330 330 331 331 331 332 332 331 332 332 331 330 330 330 330 330 330 329 329 329 328 327 326 324 322 322 322 324 325 322 322 324 325 325 326 325 324 323 322 319 313 308 306 307 308 308 308 309 310 311 313 314 316 318 318 320 321 320 316 313 313 313 312 312 312 312 312 312 313 314 315 317 318 319 321 322 324 324
327 327 327 328 327 328 328 329 329 330 330 331 332 332 332 332 332 331 330 330 330 330 330 330 329 329 328 327 326 324 322 321 321 320 322 325 324 320 320 324 325 325 325 324 323 320 314 310 307 306 306 306 306 306 307 307 307 308 309 309 310 311 311 312 311 310 308 307 307 307 307 307 307 307 307 308 308 309 310 311 312 313 315 317 318
326 325 325 326 325 326 326 327 328 329 329 330 332 332 332 332 331 331 331 329 329 329 330 330 329 329 328 327 325 322 320 319 320 320 320 321 323 319 318 322 323 323 325 325 322 316 311 309 307 305 305 305 305 305 305 305 306 306 306 306 306 306 305 305 304 304 304 303 303 302 302 302 302 302 302 303 303 304 305 305 306 307 308 310 311
325 325 325 325 324 324 324 325 326 328 328 329 330 331 331 331 331 330 330 329 329 329 329 329 329 329 328 327 325 323 321 319 319 321 319 318 320 318 316 319 321 320 323 324 319 313 311 309 306 305 305 305 304 305 305 305 304 304 304 303 303 303 303 304 304 304 304 303 303 302 302 302 302 302 302 301 301 301 301 301 301 302 303 304 305
325 325 325 325 324 324 324 324 325 327 328 327 328 329 330 330 329 329 329 328 328 328 328 328 328 328 328 327 326 323 321 321 320 321 321 320 320 317 315 318 319 317 319 319 314 311 311 308 305 305 304 304 304 304 304 303 302 302 301 301 303 305 306 307 307 307 307 306 305 304 304 304 303 303 303 303 303 302 302 301 301 300 300 300 300
325 324 324 324 324 324 324 324 325 326 327 327 327 327 329 330 329 328 329 328 328 328 328 328 327 327 328 328 327 325 321 320 321 321 321 320 318 315 314 318 317 314 314 313 311 311 311 309 307 305 304 304 302 302 302 301 301 302 302 303 306 307 308 308 308 308 308 307 305 304 303 303 302 302 302 302 303 303 303 302 302 301 301 300 300
324 324 324 324 324 324 324 325 326 326 326 326 326 326 328 329 329 328 328 328 328 327 327 327 327 328 328 328 327 326 323 321 320 320 320 319 318 315 313 314 315 313 312 312 311 311 311 310 308 307 306 306 303 301 302 302 303 304 305 305 306 307 308 308 308 308 308 307 305 303 303 303 304 303 302 302 302 302 302 302 302 302 302 301 301
323 324 324 324 323 324 325 325 325 325 325 324 325 327 328 328 329 328 328 328 327 327 327 326 327 328 328 328 327 326 325 321 319 319 319 319 318 316 315 313 313 311 310 312 312 311 311 311 309 308 307 307 306 302 302 304 305 305 305 305 305 306 307 308 308 308 308 308 307 305 305 305 305 305 305 304 303 303 302 302 302 302 302 301 300
323 324 324 323 323 323 323 324 324 324 325 325 327 328 328 329 329 328 328 327 327 327 327 326 327 328 328 328 327 327 325 323 320 319 318 317 316 316 316 315 313 311 309 311 310 310 312 311 309 309 307 307 307 304 303 305 305 305 306 306 306 306 307 307 308 307 307 307 307 306 306 306 306 306 305 305 305 305 304 303 302 303 303 302 300
323 324 324 323 323 323 323 323 324 326 326 328 328 328 329 328 328 328 327 327 327 325 324 324 326 327 327 326 326 326 326 324 323 320 316 315 315 314 314 314 314 313 312 314 312 310 312 311 309 309 308 307 306 305 304 305 305 306 306 306 307 307 307 308 308 307 307 307 307 306 306 306 306 306 305 305 305 305 305 304 302 302 303 303 302
323 323 323 323 322 322 323 323 325 327 328 328 328 327 328 328 328 327 325 323 321 319 319 321 321 321 320 319 319 322 323 323 324 322 316 313 314 314 314 314 313 313 313 315 314 311 311 311 309 308 308 306 306 305 305 305 305 306 306 306 306 306 307 308 308 307 307 307 307 306 306 305 306 306 305 305 305 305 305 304 302 302 303 303 303
323 324 323 323 321 321 322 323 324 326 327 327 327 327 327 327 325 322 318 315 315 315 316 317 316 316 315 315 315 315 317 318 319 321 318 314 313 314 315 315 313 312 311 312 313 311 310 310 309 307 307 307 306 306 306 305 305 305 305 305 305 306 306 307 308 308 307 306 306 306 305 305 305 306 305 305 305 305 304 303 302 302 303 303 303
322 323 323 322 321 320 321 323 323 324 325 325 325 325 325 322 318 315 314 313 313 313 314 314 315 315 315 315 315 315 316 316 316 320 322 316 313 314 315 315 313 312 311 310 311 310 310 310 309 307 307 307 307 307 306 306 305 305 305 305 305 305 306 307 307 307 307 306 306 306 305 305 305 305 305 305 305 304 303 302 302 303 303 303 303
320 320 322 322 320 319 319 322 323 322 323 323 323 323 322 319 316 314 314 313 313 313 314 314 315 316 315 315 315 315 316 317 317 320 322 317 313 313 314 313 312 310 309 309 308 309 310 310 309 308 307 307 307 307 307 307 306 306 306 305 305 305 306 307 307 307 307 306 305 305 305 305 305 305 305 305 303 302 302 302 303 303 303 303 303
317 319 321 321 321 319 317 318 320 319 319 319 320 321 321 320 317 315 314 313 313 313 313 313 313 315 316 315 316 316 316 318 318 320 320 316 314 313 313 312 311 309 308 308 308 309 309 309 309 308 307 307 307 307 308 308 307 307 307 307 306 305 306 308 308 307 307 306 305 305 305 305 305 305 305 303 302 302 302 303 303 303 303 302 303
318 318 318 319 319 318 316 316 317 317 317 316 317 318 318 318 316 315 315 315 314 314 313 312 312 314 316 315 315 316 315 316 316 317 317 316 315 314 313 312 311 309 308 307 308 309 308 308 308 307 307 307 307 307 307 307 307 307 308 308 308 306 306 308 308 307 307 306 305 304 305 305 305 304 303 302 302 302 302 303 303 303 302 302 302
316 315 314 315 316 315 314 315 315 315 316 315 315 315 315 315 314 315 316 316 315 315 314 313 313 314 315 315 315 315 315 315 315 315 315 315 315 315 314 313 312 310 308 308 308 309 308 308 307 307 307 307 307 307 307 307 307 307 307 308 308 307 306 308 308 307 307 305 305 305 305 305 305 303 302 301 301 301 301 302 302 303 302 302 302
313 313 312 312 313 313 313 314 314 313 313 314 314 314 314 313 312 314 316 316 315 315 314 315 315 315 315 315 315 315 314 314 314 314 315 315 315 315 314 313 312 310 309 308 309 310 309 309 308 308 307 307 307 307 307 307 306 306 307 308 308 307 307 308 308 307 307 306 305 305 305 305 303 302 302 301 301 301 301 301 302 302 302 302 302
313 313 313 312 311 312 313 313 313 312 311 312 312 313 313 313 312 313 315 316 315 314 315 316 316 315 315 315 315 314 314 314 314 314 314 314 315 315 314 313 311 310 310 310 310 311 311 310 309 307 307 308 308 308 308 308 307 306 308 309 308 308 308 308 308 307 307 306 306 306 305 304 303 302 302 301 301 301 301 301 301 302 302 302 302
314 314 312 312 312 312 313 312 312 312 311 312 312 312 312 313 312 314 315 316 316 315 315 316 315 315 315 315 314 314 314 314 314 314 314 314 314 315 315 314 313 313 313 312 312 312 312 311 309 308 308 308 308 308 309 310 308 306 308 309 309 309 308 308 308 307 307 306 306 305 304 303 302 302 301 301 301 300 300 301 301 301 301 301 301
315 314 313 313 312 311 312 312 312 312 312 312 312 311 312 313 313 314 315 316 316 316 315 315 315 315 315 315 314 314 314 314 314 314 314 314 314 315 315 314 314 314 314 314 313 313 312 311 310 309 308 308 308 309 309 310 309 307 308 309 309 309 308 308 307 306 306 306 305 304 303 303 302 301 301 301 300 300 300 300 300 300 300 300 300
314 315 316 315 313 312 312 312 312 313 313 313 313 312 313 314 314 314 315 315 315 316 315 314 315 315 315 314 314 313 313 313 313 314 314 313 314 314 314 314 314 314 314 314 313 313 312 312 310 310 309 309 309 309 309 310 310 309 308 309 309 309 308 307 307 306 306 305 304 303 302 302 301 301 300 300 300 300 300 299 299 299 299 298 298
316 318 318 316 314 314 313 312 312 313 314 314 313 312 312 313 314 313 314 315 315 315 315 314 314 314 313 313 312 312 312 312 312 312 313 314 314 314 314 314 314 314 314 314 314 313 313 313 312 311 311 310 310 310 310 311 312 310 309 309 310 308 307 307 307 306 306 304 303 301 301 300 300 300 300 300 299 299 299 298 298 298 297 297 297
319 320 320 317 315 314 314 313 313 313 314 314 314 313 312 313 313 314 314 314 314 314 314 314 313 313 313 312 312 313 313 313 314 313 314 314 315 315 315 314 314 314 314 314 314 314 314 314 313 313 312 311 311 312 312 312 312 310 309 310 310 308 307 307 306 305 304 303 302 300 300 300 300 299 300 299 298 298 297 297 297 296 296 296 296
321 321 320 318 316 315 314 314 313 313 314 314 315 315 314 313 313 313 313 313 313 313 313 313 313 314 313 313 313 314 314 315 316 316 316 316 316 316 316 316 315 314 314 314 314 314 314 314 314 313 313 312 313 313 313 313 312 311 310 310 309 308 307 306 305 303 301 301 301 299 299 299 299 299 299 298 297 297 297 296 296 296 296 296 296
323 322 322 321 320 319 318 317 316 315 314 314 315 315 315 315 314 314 314 314 314 314 313 313 314 315 314 313 313 314 315 315 316 316 316 317 317 317 317 317 316 316 315 315 315 315 314 314 314 314 314 313 313 313 313 313 312 311 309 308 308 307 306 304 303 301 300 300 300 299 298 299 299 299 298 297 297 296 296 296 296 296 296 296 296
321 321 321 321 321 321 321 321 320 319 318 317 316 316 315 315 315 315 315 315 315 315 315 314 314 315 315 315 314 315 316 316 316 316 317 317 317 317 317 317 316 316 316 316 316 316 315 315 314 314 314 314 314 313 313 312 312 311 310 308 307 305 304 302 301 299 299 299 299 298 298 299 298 298 297 297 297 296 296 296 296 296 295 295 295
313 314 315 316 316 318 319 320 321 321 321 320 320 319 318 318 317 316 316 316 316 316 316 316 315 315 315 315 315 316 316 317 317 317 317 317 317 317 317 317 316 316 316 316 316 315 315 314 315 314 314 314 314 313 312 311 310 309 308 307 305 304 303 301 299 299 299 299 298 298 298 298 297 297 297 297 296 296 296 295 295 295 295 295 294
307 308 309 310 311 312 313 315 317 319 320 320 320 321 321 321 320 320 318 317 316 316 316 316 316 316 316 316 317 316 317 318 318 318 318 318 317 317 316 316 316 316 316 316 315 315 315 314 313 313 313 314 313 313 311 309 307 307 306 304 303 302 301 300 299 298 298 298 298 298 297 297 296 296 296 296 295 295 295 295 295 295 295 294 294
304 304 305 304 305 306 307 309 311 314 316 317 317 319 320 320 320 321 320 320 320 318 317 316 315 315 316 317 318 318 318 319 319 319 319 318 317 316 315 316 316 316 315 315 315 315 314 313 311 310 311 312 312 310 309 307 305 305 304 303 302 301 300 299 298 298 298 298 298 297 297 296 296 295 295 295 295 295 295 295 295 295 294 293 293
301 301 302 302 302 303 304 305 306 308 310 311 312 313 316 317 318 319 320 320 320 320 320 319 318 317 316 317 318 319 319 319 319 319 319 318 318 317 316 316 315 315 315 315 315 314 313 312 310 309 309 310 309 307 305 304 303 303 303 302 301 300 299 299 299 299 297 297 297 296 296 295 295 294 294 294 294 294 294 294 294 294 293 293 293
300 300 300 300 301 301 302 302 302 303 305 306 306 308 309 311 314 316 318 318 319 320 320 320 320 319 318 318 319 320 320 319 318 318 318 318 318 317 316 316 315 315 316 315 313 313 312 311 310 308 308 307 306 304 303 302 301 301 301 301 300 300 299 299 299 298 297 296 296 295 295 295 294 294 294 294 293 294 294 294 293 293 293 293 293
Wind_Speed
11 11 12 12 11 10 9 9 9 9 9 8 8 6 5 5 5 6 5 4 3 4 6 8 8 7 9 13 15 14 12 11 11 11 10 10 10 11 12 11 7 5 5 5 5 5 4 3 3 6 8 7 6 6 7 8 9 9 8 8 7 6 6 6 6 6 6 6 6 6 6 6 6 6 6 6 7 7 6 6 8 10 9 9 9
11 12 12 12 11 10 8 8 8 8 7 7 6 4 3 3 3 4 4 3 3 3 6 8 9 8 9 12 14 13 11 11 11 10 9 9 10 11 12 11 9 6 5 5 5 5 5 3 2 4 6 7 7 7 8 8 8 8 7 7 7 7 7 6 6 5 5 5 5 5 5 5 5 5 5 7 7 6 6 6 8 9 9 8 7
10 12 12 12 10 9 7 6 6 6 5 5 3 2 2 2 2 2 2 2 4 5 6 8 9 9 9 12 14 13 12 11 10 10 9 9 9 10 11 11 9 7 6 5 3 4 4 4 2 3 4 6 6 6 7 7 7 7 6 6 7 7 8 7 7 5 4 4 5 4 4 4 4 4 4 6 6 5 6 6 7 8 8 7 7
11 11 11 10 9 7 6 5 4 4 4 3 2 1 1 2 2 2 2 3 6 8 8 9 10 10 11 13 14 13 12 11 10 10 9 10 10 10 10 9 9 7 7 5 4 3 3 5 5 3 3 5 5 5 6 8 8 8 7 7 7 7 7 7 7 5 3 3 4 4 4 4 3 3 3 3 4 5 5 6 6 6 7 7 6
11 11 11 9 8 7 7 6 5 5 5 4 3 2 2 2 3 2 3 6 9 11 11 11 11 12 13 15 15 13 12 11 10 9 9 10 10 9 9 8 7 6 6 6 5 3 1 3 5 4 3 5 6 6 7 7 7 8 8 8 8 8 7 6 6 5 4 4 3 3 3 3 4 3 2 2 3 3 3 5 5 4 6 6 5
10 10 10 10 8 8 7 7 6 6 6 5 4 3 3 3 4 3 4 7 10 13 13 12 13 14 15 16 15 13 12 12 9 8 9 9 9 9 8 7 6 5 5 6 6 4 2 3 5 5 4 4 5 5 4 4 3 3 4 5 7 8 8 7 7 7 6 5 3 3 2 3 4 4 4 2 1 2 2 3 3 3 3 4 4
9 9 10 10 9 8 7 6 6 6 7 6 5 4 3 4 5 5 6 7 10 13 14 14 15 15 14 14 14 12 12 10 9 9 9 9 8 7 7 6 5 4 4 6 7 5 3 2 3 3 2 2 2 2 2 1 2 3 2 3 2 3 5 7 7 8 7 7 7 6 5 4 3 4 5 4 2 1 1 1 1 2 3 3 3
9 9 10 10 9 8 8 7 6 6 7 7 6 5 4 6 7 7 7 8 12 14 15 16 17 15 13 13 12 11 10 9 9 10 8 7 7 6 6 6 5 5 5 5 6 5 3 1 0 1 2 2 2 2 2 3 4 5 5 4 2 3 1 2 4 6 6 7 8 8 9 8 6 6 7 7 5 3 2 1 1 1 2 2 3
9 9 10 10 9 9 9 8 5 6 7 8 7 5 4 7 9 9 9 10 14 16 16 16 17 15 14 13 11 9 8 7 7 8 7 6 6 5 5 5 5 5 4 4 4 3 3 2 2 2 2 3 4 5 6 6 6 5 5 5 4 4 2 2 2 2 2 4 5 7 8 9 8 8 8 8 8 7 3 2 1 1 1 1 1
10 9 10 10 10 10 9 7 6 6 7 8 7 6 6 7 11 12 11 12 15 16 16 17 18 17 15 12 9 8 6 6 6 5 5 4 4 5 5 4 5 5 4 4 3 3 2 2 2 2 2 3 5 6 7 7 7 6 5 6 5 5 3 4 4 4 4 2 1 3 5 7 7 7 7 7 8 9 7 5 3 2 2 2 2
10 11 10 10 10 10 8 6 6 7 8 9 8 8 8 9 11 14 14 14 15 16 18 19 19 16 13 10 9 8 7 6 5 4 4 4 5 6 6 5 5 5 4 4 3 3 2 1 1 2 2 3 5 6 6 6 7 6 6 6 7 6 5 5 5 6 7 6 4 3 2 2 2 3 4 5 6 7 8 8 6 4 4 4 4
10 11 10 10 9 9 8 7 7 7 9 10 10 10 10 10 12 15 17 16 16 18 20 22 21 16 13 11 9 7 6 5 6 5 4 4 4 5 5 6 6 6 5 4 3 3 2 1 2 3 4 4 5 6 7 7 7 6 6 5 6 7 6 5 4 5 6 5 5 5 6 7 4 1 1 2 4 5 6 6 7 6 5 5 5
9 10 10 9 9 9 8 8 8 8 9 9 10 11 11 12 15 17 18 19 19 19 21 24 24 19 14 11 9 7 6 5 5 5 4 4 5 6 5 6 6 6 6 4 2 2 1 1 2 3 5 6 7 7 8 7 7 7 7 5 5 7 7 6 5 5 5 3 3 4 5 7 7 6 4 3 3 3 4 5 6 6 6 6 6
9 9 9 9 9 9 9 9 9 9 10 10 11 11 12 14 17 18 19 20 20 20 21 18 17 17 15 10 8 7 7 6 5 5 4 5 6 6 5 5 5 5 4 3 1 2 2 2 3 5 7 7 8 8 7 8 8 9 8 7 6 7 7 7 6 5 4 3 3 3 2 4 6 6 5 5 6 7 4 3 5 5 6 6 6
9 9 8 8 9 10 10 10 10 11 12 12 12 13 14 15 18 20 20 20 19 20 17 11 14 18 15 8 3 3 5 6 6 5 5 6 7 7 6 6 6 5 5 4 5 6 5 4 5 7 9 9 8 9 8 8 9 10 10 9 8 7 7 7 8 8 6 4 4 4 3 1 1 1 3 4 6 9 10 7 4 5 5 6 7
9 8 7 8 9 10 10 10 11 12 13 14 13 14 15 16 18 19 21 20 18 16 11 11 18 17 9 4 2 3 2 2 6 7 5 7 7 7 8 8 8 7 6 7 8 7 6 6 8 9 10 9 9 9 9 9 9 9 10 10 9 9 9 10 10 11 11 9 8 9 9 8 7 6 4 2 1 5 8 9 7 5 6 6 7
8 7 7 8 9 10 9 10 12 13 13 13 12 13 15 16 17 17 18 18 18 15 10 12 17 13 7 6 3 2 2 3 5 6 4 7 7 7 9 9 8 8 8 8 8 8 7 8 9 9 10 10 10 9 9 8 8 8 9 10 10 10 11 12 14 14 14 14 13 14 13 12 12 11 10 8 6 5 1 3 6 8 8 8 9
7 7 7 7 8 9 10 10 12 12 12 11 12 13 13 15 15 15 15 15 17 17 13 13 14 9 8 7 3 4 8 6 4 3 4 6 6 7 9 9 9 9 10 9 9 10 10 9 9 9 10 10 9 9 8 8 9 9 9 10 10 11 12 13 16 17 16 15 15 16 16 15 15 14 14 13 12 11 9 6 3 3 5 7 8
7 7 6 6 7 8 9 10 11 11 11 10 11 12 13 13 14 14 14 13 15 16 15 15 14 9 7 6 3 9 17 12 6 4 3 3 5 9 10 8 9 11 11 11 11 12 11 9 9 10 10 10 10 10 10 10 11 11 11 11 11 12 12 13 16 18 17 17 17 18 19 19 19 19 18 18 17 16 14 13 12 11 8 6 6
9 8 7 7 6 6 7 8 9 10 10 10 11 12 12 12 13 12 12 13 13 15 16 17 15 11 8 6 5 13 19 14 13 12 5 2 4 8 10 10 11 12 12 12 11 11 10 10 10 10 11 11 11 11 12 13 14 14 14 14 14 14 14 14 16 18 19 19 19 19 20 20 20 20 20 19 19 18 18 17 15 14 13 11 11
10 9 8 7 7 6 6 7 7 9 10 10 10 11 11 11 12 11 11 12 12 13 15 17 17 14 10 8 11 15 15 12 14 15 8 5 4 3 9 12 11 11 11 11 10 9 10 10 10 10 10 11 11 12 13 14 15 16 16 16 16 16 16 16 16 17 18 19 19 18 18 18 18 18 18 18 17 17 17 16 16 15 15 13 12
10 9 9 8 7 6 5 6 7 7 9 10 11 11 10 10 10 10 10 10 11 12 13 15 16 14 12 11 15 17 14 10 12 13 10 7 4 5 10 12 9 8 8 9 9 9 9 9 9 9 10 10 11 12 13 14 15 16 16 16 16 17 17 17 18 18 18 18 18 18 18 17 17 17 17 16 16 15 15 14 14 14 14 13 13
11 9 8 7 6 4 3 5 7 7 8 9 10 10 9 9 9 9 9 9 10 11 11 13 15 15 13 12 15 19 17 14 15 16 13 9 7 6 8 11 10 9 8 8 9 9 8 8 8 8 9 10 11 12 13 14 15 16 16 17 18 19 20 21 21 21 21 20 19 19 19 19 18 18 18 17 16 16 15 14 13 13 12 12 11
11 9 7 6 4 4 2 4 8 8 8 9 9 10 10 10 10 9 9 8 9 11 10 11 14 16 15 12 14 18 19 19 21 20 16 16 15 10 9 12 9 7 10 10 9 8 8 7 7 8 8 9 10 12 13 14 16 17 18 19 21 22 23 23 23 23 23 22 20 19 19 20 20 19 18 17 16 16 16 15 14 14 14 13 12
11 9 7 6 5 5 3 5 9 9 7 7 8 9 10 11 10 9 10 10 10 10 10 10 12 14 15 14 13 15 16 18 22 20 18 21 21 14 10 11 9 8 10 10 9 8 7 7 7 8 9 9 10 11 14 16 18 19 20 21 22 23 23 23 22 22 23 23 22 20 20 22 23 23 22 21 19 17 16 16 16 15 15 14 14
10 9 8 7 6 6 5 7 9 8 6 6 6 7 9 9 9 9 10 10 9 9 9 8 10 12 13 13 14 14 13 17 21 21 20 22 23 19 13 8 10 12 8 6 8 7 5 7 7 8 8 9 10 12 15 17 19 19 19 19 19 20 20 20 20 20 20 22 22 21 21 22 23 24 26 26 24 22 19 18 18 18 17 15 14
9 9 9 9 8 7 7 7 8 8 7 6 6 7 8 9 9 9 10 9 9 9 8 8 9 11 13 13 14 14 13 16 20 19 20 24 24 24 20 11 6 6 4 5 7 3 4 7 7 7 7 8 9 12 15 17 17 17 17 17 16 16 16 17 17 17 17 18 20 20 19 20 21 23 24 26 27 26 23 20 19 19 20 18 16
9 10 10 9 8 7 7 7 7 8 7 7 7 8 9 9 10 9 9 10 9 9 8 8 9 10 12 12 14 15 14 15 17 16 18 25 26 25 26 19 11 4 1 4 4 3 6 9 6 6 7 7 9 11 13 14 15 15 15 14 14 14 14 14 14 14 14 15 16 16 16 17 19 20 21 22 24 25 25 24 20 18 19 18 17
10 10 10 9 7 6 6 6 6 7 8 8 8 9 10 10 10 9 9 9 9 9 8 8 10 10 11 12 12 15 16 16 16 14 18 25 27 25 24 22 18 10 3 2 4 5 9 9 6 7 7 7 8 10 12 12 13 14 13 12 12 12 12 12 12 12 11 11 12 13 13 15 16 17 18 19 20 22 24 25 22 17 16 16 16
11 10 10 9 6 6 7 6 6 8 9 9 8 9 10 10 10 9 9 8 8 8 9 10 11 11 11 12 12 15 18 19 18 16 19 24 26 25 22 20 19 16 10 6 5 8 13 12 8 7 8 9 9 9 11 11 11 12 11 10 9 9 10 10 10 10 9 8 9 9 10 12 13 15 15 16 17 19 21 24 22 16 13 13 14
11 10 10 9 7 7 8 8 8 8 9 8 8 9 10 10 10 10 9 9 9 11 12 13 14 13 11 11 11 14 17 19 20 19 21 23 24 24 23 20 19 18 17 12 5 9 16 14 10 10 9 9 9 10 11 11 10 9 8 7 6 6 6 7 7 7 7 6 6 6 7 9 10 12 12 13 15 17 20 21 19 14 11 11 11
10 10 9 9 8 8 9 10 10 10 9 9 9 9 10 11 11 10 10 11 12 14 15 15 15 14 13 11 9 11 13 17 21 23 23 23 24 24 22 22 21 17 17 16 9 9 16 15 11 11 11 10 10 10 11 10 9 8 7 6 4 4 4 4 5 4 4 4 4 4 4 6 7 8 10 12 15 17 17 17 15 12 10 9 8
8 8 9 9 8 8 9 10 11 11 10 10 10 10 11 11 10 10 10 12 13 14 15 14 14 14 15 14 11 10 12 16 21 24 24 23 23 24 22 22 23 19 17 16 11 10 14 15 13 12 12 12 10 10 10 10 9 8 7 6 5 5 4 3 4 3 3 2 3 3 2 3 5 5 8 12 15 15 15 13 12 11 10 9 8
7 7 8 8 8 7 8 10 10 10 9 9 10 10 10 10 10 10 10 11 13 13 13 12 12 14 16 16 15 14 13 15 18 19 21 21 21 23 24 24 25 21 18 16 12 12 14 16 15 15 15 14 12 11 10 9 8 8 7 6 7 6 6 5 5 4 3 2 1 1 0 1 2 5 10 13 13 12 11 10 9 9 10 9 7
7 7 6 7 7 7 8 9 9 9 8 8 9 10 11 10 11 11 11 12 13 12 11 11 12 13 15 17 18 17 16 16 16 16 16 16 16 19 23 26 27 24 20 17 13 13 16 17 17 17 17 16 14 12 11 10 9 7 6 6 7 7 8 8 7 5 3 2 1 1 2 2 2 7 11 11 9 8 8 8 8 7 8 8 7
7 6 5 6 7 7 8 9 9 8 8 8 9 11 11 10 10 12 12 12 12 11 10 11 13 14 15 16 16 16 16 16 16 15 14 13 13 14 17 22 25 25 22 19 15 14 17 18 18 18 17 15 14 13 13 13 12 10 9 8 7 9 10 10 8 5 4 3 3 2 2 2 6 9 8 7 6 6 7 7 7 6 6 6 7
8 7 5 5 7 8 8 8 8 7 8 8 10 11 11 10 11 12 12 12 11 11 11 11 12 13 14 14 14 14 14 14 14 14 13 12 11 11 13 16 20 22 21 19 16 16 17 19 19 18 17 16 15 14 14 15 14 13 11 9 8 11 12 11 8 7 6 6 5 4 3 5 7 6 5 5 6 7 8 9 8 7 7 8 7
9 8 7 6 6 8 9 8 8 8 8 8 9 10 10 10 11 12 13 12 12 12 12 11 11 12 12 13 13 12 12 12 12 12 12 12 11 11 12 13 16 19 19 18 17 16 16 18 19 19 19 18 16 14 13 14 15 14 12 10 9 12 13 11 9 8 7 7 6 2 4 6 5 4 5 7 8 9 10 10 9 9 9 10 9
10 10 10 9 8 8 8 9 9 9 8 8 8 9 9 9 10 13 14 14 12 12 13 12 11 11 11 12 12 11 11 11 12 12 12 12 13 13 13 14 15 17 17 17 18 17 16 16 18 19 19 19 17 14 11 11 13 14 13 13 13 13 13 11 9 9 8 7 4 1 4 4 4 5 7 8 9 9 9 9 9 9 10 10 10
10 9 9 10 10 9 8 9 10 10 8 8 8 8 8 9 11 13 14 14 14 13 14 14 13 13 13 13 12 12 12 11 11 12 12 12 13 15 16 15 15 16 17 18 19 18 17 17 19 19 18 18 17 15 12 10 13 15 16 16 15 15 13 11 10 10 8 5 2 4 5 5 6 7 7 8 8 8 8 8 9 9 10 11 11
10 8 8 10 12 12 11 11 12 11 9 9 9 10 10 10 12 14 15 14 15 15 15 15 15 15 15 15 14 14 14 14 13 13 13 12 13 15 17 17 17 17 18 19 21 20 18 18 19 19 17 17 17 16 15 13 14 15 17 16 15 16 15 12 12 10 7 4 3 5 6 6 7 7 6 7 7 7 8 8 10 11 13 14 15
9 7 7 10 11 11 12 13 14 13 12 10 10 11 12 12 12 14 16 16 16 16 17 16 16 17 16 16 16 15 15 15 16 16 15 14 14 14 16 17 18 19 20 20 21 20 19 19 20 19 18 18 18 17 17 16 15 15 17 17 16 16 15 12 11 9 7 5 5 6 6 6 6 6 6 6 7 8 9 10 11 13 14 15 16
7 6 7 10 12 12 12 14 15 15 14 13 12 12 13 14 14 14 16 17 18 18 18 18 18 19 19 18 17 16 16 15 15 16 16 16 15 14 14 15 17 18 20 21 21 20 19 19 19 19 19 20 19 17 16 16 16 16 17 18 18 17 15 12 9 7 6 6 6 6 5 4 3 5 5 7 8 9 9 10 12 14 16 16 16
2 2 2 6 9 10 12 14 16 17 17 16 15 14 14 15 16 17 18 19 20 20 20 20 20 20 21 22 20 18 18 17 17 17 17 17 17 16 15 15 16 17 18 19 20 20 20 19 19 19 20 20 19 18 17 16 17 17 16 16 17 16 14 11 8 6 5 5 5 5 3 2 2 4 5 6 8 9 10 12 13 14 15 15 14
4 3 2 1 2 4 6 9 12 15 18 19 19 19 18 17 18 19 20 21 21 22 23 23 22 22 22 23 23 22 21 20 20 20 20 20 20 19 18 18 18 18 19 19 19 19 19 19 19 20 21 20 19 19 18 17 17 18 18 17 16 14 11 8 7 6 4 3 3 4 3 3 4 5 5 6 8 10 12 13 14 14 14 13 14
5 4 4 3 1 0 2 3 5 8 10 14 16 18 20 21 21 22 23 23 23 24 25 26 26 26 25 26 26 26 25 24 24 24 24 25 24 23 22 22 21 21 20 20 20 20 20 20 20 21 21 20 19 18 17 17 17 18 19 18 15 12 9 6 5 5 3 1 1 2 4 5 4 5 6 7 9 12 13 13 12 12 12 14 16
7 6 5 5 4 3 2 3 5 5 6 7 10 12 15 17 19 22 24 26 27 27 27 28 29 29 29 29 29 29 28 27 27 27 27 28 27 26 24 23 22 21 21 22 22 21 20 20 21 22 22 21 20 18 17 17 17 16 16 15 12 9 8 7 5 4 3 2 1 2 4 5 5 6 8 9 11 13 13 12 11 11 12 16 18
8 6 6 5 5 4 4 4 5 5 5 5 8 9 11 13 14 17 19 22 25 28 30 31 31 31 32 32 32 31 31 30 29 29 29 29 27 25 23 23 23 23 23 24 22 19 19 20 20 20 19 19 19 17 16 17 16 14 13 11 9 8 8 8 7 5 3 2 2 2 2 3 5 7 9 11 13 13 11 10 10 11 14 18 18
9 8 7 7 7 7 6 6 6 6 6 6 7 9 10 12 14 15 16 18 20 23 26 29 30 32 32 32 32 32 31 31 31 30 31 29 27 24 24 25 27 28 27 26 23 21 21 19 16 14 13 13 14 15 16 15 13 12 10 10 10 9 9 9 7 6 4 3 2 1 2 4 5 7 10 12 13 13 11 9 10 13 16 17 14
12 11 10 9 9 9 8 8 8 8 8 8 8 9 10 11 12 14 16 18 19 21 22 24 25 28 30 30 30 31 32 31 30 30 30 30 29 28 27 26 28 29 28 25 22 21 20 17 14 13 12 12 14 15 15 13 10 9 7 8 10 11 10 9 7 6 5 5 4 2 3 4 4 7 11 13 14 13 9 8 12 16 16 14 12
12 12 11 11 10 10 10 9 10 10 11 10 10 11 11 12 13 13 14 17 19 21 22 23 23 25 27 28 29 30 31 30 28 29 30 32 32 31 29 28 28 28 27 24 21 18 16 15 16 16 16 16 16 15 13 11 9 8 6 6 8 10 9 8 7 6 5 5 4 2 4 4 4 8 11 11 10 9 8 10 15 17 14 12 13
Wind_Direction
174 180 180 178 178 173 161 148 139 132 128 127 128 130 132 136 144 157 165 169 161 146 143 140 139 143 145 158 167 165 162 159 157 156 156 155 149 152 157 153 142 129 128 120 100 91 100 121 108 74 65 68 82 88 94 92 84 81 78 76 76 78 80 77 77 77 82 85 85 85 82 84 79 73 72 68 65 66 74 84 88 79 66 71 76
187 189 186 184 183 176 165 153 143 136 132 131 130 128 135 147 155 166 177 176 169 156 145 134 126 134 146 158 165 165 163 160 158 156 156 157 150 144 147 146 139 132 119 114 118 112 99 110 121 88 69 65 79 84 88 92 84 77 72 69 68 67 68 68 69 69 74 78 82 84 79 80 82 84 78 70 68 60 60 79 92 81 67 66 66
198 197 191 189 188 183 177 161 149 151 149 144 138 133 145 159 172 182 182 164 161 151 148 144 134 137 151 158 162 164 162 159 157 157 158 161 157 147 144 142 141 139 131 122 115 107 91 91 106 100 75 61 71 81 80 84 81 73 66 62 60 61 62 53 49 55 72 73 71 75 74 72 77 87 86 82 78 62 62 80 90 80 71 64 54
211 208 202 197 198 198 196 184 173 183 182 178 180 189 194 190 200 196 154 151 156 153 158 161 150 148 157 161 161 160 158 155 154 157 164 165 162 156 151 149 149 149 153 147 131 124 80 87 110 122 87 59 62 77 76 79 78 70 62 57 53 57 59 49 37 41 79 91 73 65 62 58 52 65 78 86 88 77 71 76 79 80 81 74 58
213 213 211 209 213 213 212 213 211 211 208 205 204 204 209 199 192 186 155 158 159 158 162 161 157 156 161 164 161 158 152 145 146 155 168 168 163 166 164 160 162 164 168 163 151 158 145 108 121 120 88 68 78 85 74 72 75 70 59 50 45 46 51 45 32 39 74 97 102 82 60 43 34 34 42 59 85 85 80 77 73 77 89 84 63
211 213 211 216 223 218 220 220 210 208 205 201 201 196 201 203 201 184 158 164 163 160 159 154 154 157 162 169 167 158 147 142 143 154 169 169 164 169 168 165 167 169 174 170 163 165 180 162 141 137 119 93 97 98 70 40 41 60 48 35 31 32 36 31 23 35 58 68 76 89 72 41 32 25 15 12 45 74 83 88 80 70 78 85 69
209 213 212 215 216 211 211 206 195 192 193 193 191 192 198 194 195 184 164 166 163 159 158 152 152 157 166 176 172 160 153 153 156 158 167 168 163 164 162 161 162 161 166 168 171 172 163 134 123 145 160 133 139 140 100 14 357 12 350 344 1 12 26 26 25 33 44 51 52 57 59 48 39 31 18 9 358 357 28 66 83 67 62 71 64
210 211 210 209 205 200 197 193 185 178 183 188 185 196 208 183 179 184 174 163 158 155 155 153 149 154 171 181 172 162 159 160 161 159 165 167 159 156 153 157 161 158 160 167 178 188 190 180 145 266 275 289 295 324 353 358 359 354 343 341 295 256 295 11 31 43 45 52 50 47 46 41 41 40 34 29 17 353 321 314 38 61 67 66 49
211 208 206 207 200 195 193 188 179 174 178 183 181 183 194 177 165 174 180 165 157 154 152 150 146 154 173 176 164 156 149 144 153 161 165 164 155 150 149 152 159 159 162 172 184 197 211 237 257 260 284 305 317 338 356 9 13 359 345 338 303 274 258 259 293 16 31 46 52 48 41 36 35 34 39 38 28 19 355 320 340 337 28 70 38
210 206 201 201 197 196 196 183 176 178 175 177 180 169 168 172 161 163 172 163 158 155 148 141 140 153 166 162 150 146 134 122 136 154 156 155 150 154 157 154 154 156 168 180 185 200 221 249 276 277 290 317 328 339 354 2 4 7 358 337 317 313 293 265 263 258 257 265 36 47 33 27 25 20 26 34 28 27 29 21 1 328 358 27 4
207 207 201 199 197 197 196 185 183 183 175 176 179 170 164 167 161 158 160 158 155 150 143 136 135 147 150 135 126 124 118 113 119 132 139 147 151 160 174 177 170 166 183 195 180 184 201 242 328 350 348 349 353 357 6 1 352 360 6 355 340 333 317 294 281 268 265 261 254 250 261 302 355 12 6 15 23 25 29 29 23 6 6 15 12
208 211 206 203 202 200 196 194 194 187 183 180 176 173 169 165 162 158 153 148 145 143 142 135 126 126 127 121 118 110 103 104 109 115 122 138 149 154 167 178 182 186 204 218 201 195 197 112 42 48 47 34 29 27 30 29 18 13 16 11 354 345 339 329 319 306 299 288 277 269 251 253 258 237 299 341 7 19 24 21 20 16 6 5 11
215 216 211 209 209 205 200 201 197 191 191 185 175 173 172 168 163 159 153 144 140 142 144 134 120 115 116 112 109 105 93 91 105 122 124 130 138 137 142 156 176 190 205 224 224 220 206 100 79 83 74 53 45 42 38 34 31 27 25 24 14 3 358 357 3 354 332 324 317 296 267 259 257 241 231 246 280 331 4 7 5 5 358 355 360
213 214 213 211 211 208 204 203 196 190 191 186 179 172 171 171 163 156 153 147 142 143 144 137 122 121 121 105 90 90 82 81 104 133 125 118 131 128 121 132 152 169 180 191 154 118 113 102 88 84 75 60 46 40 35 31 31 33 28 27 34 25 9 8 22 22 357 360 22 360 298 253 241 240 246 239 240 253 271 318 339 349 354 348 345
206 207 208 205 209 210 204 199 191 185 185 181 176 169 167 172 167 159 153 148 146 147 147 145 134 129 123 110 96 87 64 59 80 107 119 115 123 120 103 105 116 128 139 131 120 118 112 94 72 67 62 52 44 39 36 38 40 39 35 38 46 37 25 27 36 40 42 49 53 49 45 27 212 234 268 253 241 244 243 250 289 320 335 331 327
196 196 198 199 203 205 198 192 185 181 182 178 173 169 169 171 170 167 160 152 151 155 155 152 147 138 121 101 115 112 83 63 71 73 106 122 118 114 102 98 103 108 119 121 121 121 109 90 73 62 54 49 49 49 49 51 51 46 46 51 56 51 45 49 55 58 62 69 73 72 68 61 60 62 51 24 291 253 242 243 255 277 300 310 312
188 183 187 193 194 195 193 187 182 180 181 180 175 173 174 174 175 174 168 161 161 162 160 157 157 152 137 125 114 119 200 169 102 69 90 126 126 118 104 94 99 109 117 119 118 113 100 88 75 61 54 55 58 59 59 62 63 62 64 64 65 66 63 65 71 72 70 71 73 72 72 72 72 68 63 60 56 51 35 252 250 258 269 278 287
172 169 175 182 182 186 189 186 183 181 182 184 184 181 179 180 180 181 179 173 170 167 164 165 166 158 147 143 125 161 167 150 116 61 76 118 126 118 105 96 104 115 117 114 111 107 100 86 71 62 60 64 67 70 73 78 80 79 76 74 72 72 73 74 76 76 75 75 75 74 73 76 78 76 72 68 64 62 60 55 33 327 294 281 283
155 154 161 169 168 173 182 185 187 185 183 186 189 190 187 185 186 188 189 187 182 176 172 171 170 163 159 156 119 156 161 153 146 142 102 111 116 107 107 106 112 118 116 114 112 107 98 80 67 68 74 77 78 83 85 85 86 84 81 80 78 75 77 81 82 82 82 81 80 77 75 74 74 74 72 70 68 68 68 67 62 54 48 43 38
144 143 144 149 149 155 165 176 184 186 185 186 188 193 193 188 187 191 196 201 202 194 183 178 175 169 162 152 132 157 165 164 158 148 125 110 110 99 108 121 129 129 123 119 115 107 93 75 68 73 81 86 87 88 90 89 88 87 85 84 83 81 81 84 86 85 83 81 79 77 75 74 73 71 70 68 68 68 68 69 68 64 62 63 61
133 131 132 136 140 146 152 162 174 181 184 185 185 191 193 189 185 188 196 204 212 210 198 189 185 179 170 148 136 149 158 159 153 143 127 134 148 119 122 128 131 132 132 127 114 100 85 70 68 77 84 90 93 93 93 93 92 90 89 88 87 86 85 84 83 83 83 81 79 77 76 74 72 71 70 69 68 67 66 66 66 64 62 62 60
132 130 130 133 136 141 150 160 166 177 186 186 184 187 191 191 189 192 200 207 211 213 209 204 198 191 184 161 143 144 144 146 151 145 132 126 136 141 139 139 135 130 139 133 112 96 79 68 68 80 91 95 97 98 98 97 96 94 93 91 89 88 85 83 79 77 77 75 74 73 72 71 69 67 65 64 64 64 63 62 61 62 61 59 57
142 138 137 137 136 136 147 164 166 168 177 182 184 186 186 185 189 196 204 212 212 209 207 210 209 201 193 179 163 161 160 163 167 159 146 134 130 126 133 141 134 130 145 140 118 103 82 71 76 87 98 101 101 102 101 102 101 99 98 94 91 88 84 80 77 73 70 68 68 67 66 64 63 61 58 56 56 55 55 54 52 52 52 52 51
152 150 153 157 160 160 170 178 171 166 165 169 175 180 180 179 185 192 195 199 201 200 197 202 208 204 196 192 183 176 173 172 172 169 165 156 145 127 127 137 124 120 144 143 128 115 95 82 86 98 105 104 106 107 104 105 104 101 100 96 93 88 82 78 75 72 68 65 65 65 64 61 57 55 53 50 50 49 49 48 47 45 43 41 41
157 158 161 168 178 179 190 183 176 173 166 163 168 177 184 186 187 188 187 187 189 193 196 197 204 205 199 196 192 185 179 175 174 174 171 160 145 129 132 141 131 129 144 144 136 127 115 102 98 107 111 107 109 111 109 109 106 103 100 98 95 89 82 77 74 70 67 64 64 65 65 62 58 55 52 50 48 48 48 48 47 45 42 39 38
162 162 160 163 168 169 169 169 172 176 174 178 186 187 191 193 192 187 182 184 187 190 199 202 201 204 202 200 198 192 183 178 178 175 170 163 150 136 127 119 125 136 144 151 146 140 136 129 117 114 116 112 109 113 116 113 107 105 102 99 97 91 84 78 73 69 66 64 65 67 65 60 56 54 52 50 48 46 47 47 46 43 42 41 40
164 161 159 160 159 161 167 169 171 179 188 196 199 193 193 193 191 187 180 181 188 190 199 206 200 199 200 200 199 194 183 179 184 184 178 173 164 151 142 124 113 132 136 153 160 168 171 156 137 126 125 121 117 117 121 118 111 108 105 100 98 93 87 80 73 69 66 65 66 67 64 57 52 49 47 46 45 43 42 40 39 37 38 40 43
160 159 158 158 157 165 177 181 181 186 191 190 186 187 191 189 186 187 185 186 191 191 193 192 187 188 191 195 200 195 186 181 187 194 189 180 173 166 159 151 145 141 96 153 186 215 181 173 161 150 142 130 128 127 126 124 116 112 109 105 100 96 92 84 76 70 65 65 66 66 63 57 51 46 42 41 38 36 34 30 28 27 30 34 38
162 162 163 161 161 176 184 180 180 181 179 178 177 180 186 186 186 190 190 188 187 183 179 173 171 176 181 188 195 193 190 189 190 197 192 182 176 175 174 168 160 152 128 176 209 199 181 185 182 170 163 149 140 137 135 133 127 121 118 114 109 103 99 90 81 73 65 64 66 66 63 57 51 45 39 35 31 27 24 21 20 18 19 23 27
166 168 171 169 172 188 185 170 167 171 174 177 176 179 182 180 180 183 180 178 176 170 167 163 160 163 171 179 186 189 194 197 196 194 188 183 181 180 183 183 174 167 162 168 202 200 187 188 189 181 172 158 149 147 147 145 141 136 130 126 121 113 108 99 88 81 73 66 66 69 67 59 52 45 39 32 24 19 13 12 14 15 14 13 15
170 173 173 171 173 180 176 167 163 165 170 174 174 173 171 168 169 168 164 163 158 150 150 151 149 150 156 165 180 190 195 200 199 193 189 188 188 187 189 192 188 184 178 165 166 202 195 191 186 177 170 159 155 158 159 157 156 154 148 143 136 127 124 115 103 92 81 72 70 73 73 64 54 45 38 29 18 11 5 5 10 14 13 9 6
176 178 175 171 169 165 164 167 166 163 164 165 165 165 162 161 162 159 156 157 151 144 143 142 142 146 147 146 162 180 186 194 194 188 189 195 194 193 199 201 197 196 189 173 162 188 196 196 189 177 173 170 165 166 168 171 174 174 171 169 160 149 145 136 129 113 93 82 74 77 83 71 57 44 34 23 12 5 0 2 10 15 13 7 2
186 183 178 174 172 164 161 167 170 169 170 169 168 169 166 166 166 163 161 160 156 151 149 143 139 144 145 138 137 150 167 182 187 185 188 194 195 198 204 206 204 202 195 182 165 165 188 200 200 188 184 185 181 179 178 180 187 192 191 194 193 183 174 170 170 155 123 101 76 79 93 76 62 45 24 13 6 4 3 8 14 17 13 6 359
185 181 180 181 184 182 171 169 173 175 179 182 182 183 180 177 178 177 174 171 166 161 159 156 149 145 143 140 135 134 144 161 173 181 188 193 198 204 206 207 207 207 202 193 176 166 184 200 203 198 195 197 196 193 191 190 195 205 210 213 215 209 201 197 189 177 166 149 96 71 202 128 76 28 13 11 11 11 11 12 12 12 11 6 355
183 185 191 192 194 196 185 178 180 182 184 186 187 190 187 184 183 180 179 178 173 170 171 171 167 158 149 144 142 144 146 149 157 167 179 187 196 206 209 209 211 210 207 205 198 185 187 195 201 202 201 204 206 205 207 207 206 215 229 232 232 224 211 203 195 184 180 178 175 225 209 165 45 14 14 19 20 12 5 1 0 8 15 14 7
185 186 190 193 193 194 187 180 182 187 192 194 193 193 190 189 188 182 178 179 179 181 181 175 173 171 163 155 152 155 158 158 160 166 172 178 185 196 203 208 212 211 206 206 211 204 195 193 198 201 204 209 213 213 219 223 220 223 236 240 232 220 208 201 198 193 194 198 192 164 128 70 19 15 20 21 8 353 348 347 345 352 2 5 9
180 178 175 183 190 194 194 188 187 194 201 203 202 199 197 198 198 189 183 183 187 189 185 177 173 174 174 170 167 169 173 171 169 172 178 180 183 189 194 200 206 206 203 205 211 210 203 199 199 201 206 213 218 220 225 231 229 224 229 234 223 206 197 194 197 203 211 203 175 135 70 24 16 19 13 351 339 337 338 338 335 334 338 341 347
188 192 188 187 189 195 201 204 203 207 208 206 207 206 204 206 204 196 192 191 192 192 188 183 180 180 181 182 181 183 191 192 187 186 189 191 193 193 191 191 195 199 202 207 210 211 210 208 204 202 207 214 219 222 226 233 231 222 214 210 200 191 190 194 201 204 202 189 168 122 12 9 11 357 337 328 330 336 338 338 336 336 339 341 342
203 206 204 205 203 202 208 211 209 210 211 211 211 209 206 207 203 197 198 199 198 198 198 196 196 194 194 196 197 198 203 207 206 201 199 200 201 202 200 197 197 200 206 211 211 212 216 214 209 207 209 214 217 220 225 228 224 219 211 199 187 184 189 196 197 187 180 176 171 343 353 359 339 325 326 325 329 338 342 344 344 342 344 344 344
211 214 217 219 215 212 214 210 204 206 214 219 218 215 213 213 207 203 204 207 208 209 207 208 210 211 211 212 215 218 220 222 221 217 213 206 204 207 208 209 209 208 209 212 212 214 218 217 215 213 212 214 216 220 224 217 211 213 213 205 193 186 186 186 180 176 178 184 243 314 326 328 323 326 328 324 332 342 343 345 346 345 346 345 343
214 226 239 235 225 221 218 211 205 206 216 225 226 227 228 225 218 214 213 215 216 216 215 217 220 221 222 225 228 232 234 235 235 234 230 223 217 214 213 214 216 215 214 214 214 215 217 217 216 216 216 217 218 219 219 218 219 218 213 207 198 188 185 183 181 186 198 219 287 315 327 332 333 337 334 329 341 348 341 342 344 344 346 345 342
219 239 250 238 229 224 217 214 214 214 218 225 228 230 232 231 228 223 222 221 220 221 224 228 231 231 233 237 239 240 239 239 239 239 238 236 234 230 226 223 219 217 215 214 215 216 217 217 216 214 215 219 220 221 223 228 232 225 212 206 198 187 184 185 186 197 220 255 302 324 341 349 340 337 340 341 347 350 345 346 348 347 346 345 343
234 256 254 237 233 228 218 216 218 219 223 227 230 232 232 232 231 228 226 226 225 227 231 235 240 242 242 242 243 243 241 240 241 241 240 241 240 238 237 232 225 220 217 216 216 216 216 218 218 215 216 220 221 221 225 228 227 222 213 207 200 189 185 187 193 207 237 273 307 326 346 3 340 324 326 332 339 348 352 351 349 346 343 342 341
199 265 247 230 231 231 226 224 224 224 228 231 234 236 236 235 234 233 232 233 234 235 238 240 243 246 246 245 243 243 244 244 244 243 242 242 243 242 241 239 234 230 227 225 224 223 223 223 220 218 220 222 221 219 220 221 218 214 208 203 199 193 191 195 200 208 236 274 303 324 334 329 312 312 312 319 332 344 349 346 343 339 337 338 338
102 90 87 132 203 224 230 232 231 231 232 235 237 240 242 242 240 239 239 241 242 242 243 244 245 245 244 243 243 244 244 244 244 245 244 243 242 240 241 242 240 238 236 236 236 237 238 235 230 229 229 227 227 225 223 220 214 205 198 195 194 193 196 201 201 201 219 263 303 316 295 267 281 298 300 316 333 342 343 339 334 331 332 335 337
96 92 82 74 76 358 262 257 256 250 244 244 244 246 248 249 246 244 244 244 245 246 247 248 248 248 246 244 244 245 245 244 243 243 244 243 241 240 240 239 239 239 238 238 240 243 245 246 246 247 246 244 243 239 229 222 217 211 201 194 192 193 193 194 194 197 206 223 310 296 245 234 256 285 297 316 330 335 336 330 323 323 329 334 336
80 79 73 62 54 34 343 302 284 280 276 269 264 260 259 259 256 254 251 249 248 248 249 250 251 252 252 251 250 250 249 247 246 244 243 242 241 240 238 237 239 242 243 243 244 244 247 251 252 253 255 254 251 245 231 219 214 211 203 195 193 194 187 181 180 181 186 202 273 272 231 227 256 291 305 317 323 327 328 319 310 315 325 331 334
67 67 63 46 32 23 8 341 306 289 283 287 287 283 279 276 272 268 264 260 257 254 252 251 252 252 252 253 253 252 251 250 247 245 244 242 240 238 237 240 245 249 252 253 252 254 261 261 255 256 259 254 247 236 221 208 201 198 195 187 185 189 180 168 166 173 184 221 260 261 242 251 278 301 312 316 320 325 323 308 298 306 321 330 336
33 31 29 20 9 360 351 343 324 300 289 296 300 295 293 291 288 285 280 274 269 265 261 259 257 256 255 254 255 254 252 250 248 245 243 242 242 240 240 243 246 250 253 253 252 256 264 261 253 253 252 238 223 210 201 199 200 202 200 188 182 185 180 170 173 184 194 209 221 244 298 292 292 308 317 321 325 328 324 308 296 306 322 332 338
11 7 2 358 355 349 342 338 328 309 296 299 300 295 294 297 295 292 290 284 277 273 272 269 266 264 262 260 259 258 254 251 249 248 247 246 246 245 245 244 243 245 245 243 241 242 245 246 245 242 228 208 197 194 193 194 199 204 208 198 190 186 181 180 184 185 189 203 217 266 307 290 293 320 330 330 329 329 327 311 304 315 327 335 338
5 359 350 344 345 344 341 338 331 318 305 300 301 298 296 299 299 295 293 290 282 276 276 274 271 269 266 264 262 261 259 254 249 249 251 252 249 247 245 242 239 239 238 238 237 230 227 235 238 226 210 199 193 191 190 187 183 185 188 192 191 187 183 185 186 181 185 201 216 286 317 296 309 334 341 342 334 327 325 314 312 322 331 334 336